Theta_e
324 323 323 325 323 322 323 321 320 322 320 317 317 317 317 317 316 315 315 334 342 340 335 334 334 334 334 335 339 339 342 347 350 350 349 349 350 351 352 352 351 349 350
322 324 323 323 322 323 323 322 319 317 319 316 317 318 318 317 317 316 317 317 338 342 339 337 336 336 335 334 336 338 342 345 347 350 349 348 348 349 350 350 350 348 349
322 324 323 322 322 322 321 320 320 321 322 321 318 321 320 318 318 317 316 316 319 335 341 342 339 340 337 335 334 336 339 343 344 347 348 347 346 347 348 349 348 347 347
327 325 325 325 324 323 321 320 320 318 317 318 318 319 318 317 317 317 318 317 317 319 324 340 342 343 339 336 334 334 338 341 342 344 345 346 346 346 346 347 348 346 346
329 326 325 325 323 321 321 319 317 317 316 317 318 321 319 317 318 321 318 319 316 318 316 323 336 341 343 338 335 334 335 338 341 342 341 343 344 345 344 345 347 346 346
328 324 322 320 319 319 318 315 313 313 314 316 319 319 317 316 316 316 317 319 317 316 315 315 317 326 341 338 337 334 334 335 340 339 340 341 343 344 342 343 345 345 345
327 322 315 318 316 314 313 313 311 312 311 313 311 310 312 314 314 316 317 316 317 319 314 314 314 320 329 340 339 338 335 334 333 339 338 339 339 340 341 341 342 343 344
322 317 314 314 313 313 312 311 311 308 309 311 308 305 303 307 311 313 313 314 315 317 316 317 319 322 321 322 327 338 335 333 332 335 337 338 339 338 338 340 340 342 342
320 318 316 313 313 314 312 310 310 308 306 309 310 307 300 302 305 310 312 313 315 315 316 319 318 319 319 319 326 330 335 334 332 333 336 337 336 336 337 337 340 340 341
320 319 318 316 314 314 312 312 312 310 308 306 307 311 308 307 303 303 308 311 314 318 314 317 317 318 317 318 323 328 333 336 332 332 333 332 332 333 335 337 338 340 340
318 318 317 316 315 312 312 312 314 312 308 307 306 305 306 307 308 305 304 306 310 315 315 317 315 315 316 317 318 322 332 333 333 333 334 331 331 332 334 335 337 337 338
313 315 316 314 313 313 315 315 315 313 312 308 307 306 307 305 304 303 303 304 304 311 313 314 316 316 315 314 322 328 329 331 330 330 330 331 332 331 332 334 335 336 337
310 310 311 315 314 313 313 313 313 312 309 307 307 307 307 309 309 307 306 307 303 306 308 310 313 315 316 315 318 328 331 330 328 327 327 329 330 332 332 333 334 335 335
310 310 309 309 309 309 309 308 308 308 307 307 307 306 308 309 310 309 307 304 304 304 307 308 310 314 315 313 315 323 322 327 327 325 325 326 327 328 330 331 332 334 335
310 308 306 306 307 308 310 310 308 307 308 308 307 307 306 309 310 310 310 310 307 299 300 304 306 311 313 312 316 315 316 322 327 325 323 323 324 325 326 326 327 327 331
302 303 304 304 305 306 307 309 310 311 310 310 308 306 306 308 309 309 309 308 307 305 301 306 307 309 311 314 314 316 315 323 325 324 324 324 322 322 323 323 323 324 327
303 304 304 304 305 305 306 305 307 307 307 307 307 307 308 308 308 308 308 308 306 305 303 304 308 309 310 310 312 314 315 316 318 324 325 324 321 320 321 321 321 322 324
304 303 304 303 304 304 304 305 306 308 306 305 307 307 308 312 308 308 307 307 306 306 305 303 304 306 308 309 310 310 314 318 316 321 322 322 321 319 318 318 318 319 320
302 302 302 301 303 305 305 305 308 309 307 307 307 308 309 309 307 307 307 307 307 308 305 304 305 307 309 308 308 309 310 311 315 321 321 321 320 319 318 317 316 317 316
302 301 302 303 304 306 306 305 307 306 309 308 309 310 310 310 309 308 308 308 307 307 307 306 305 305 306 308 308 307 306 308 309 317 321 319 318 317 316 317 317 317 313
302 302 303 303 303 306 308 305 306 305 304 306 308 312 313 313 317 313 309 307 307 307 305 304 303 302 303 305 305 310 308 306 313 315 315 315 315 315 315 316 317 315 312
301 302 303 304 302 307 306 306 306 301 303 303 307 312 314 315 314 313 313 311 307 302 300 300 300 301 302 304 307 308 306 310 308 315 313 312 316 314 314 314 312 310 309
299 300 302 303 303 304 305 303 305 302 302 303 305 310 312 312 311 309 311 312 311 312 310 306 306 307 308 306 311 309 310 306 303 311 314 311 313 310 312 311 309 308 308
299 300 302 303 302 304 305 303 304 302 304 307 309 310 307 308 307 307 307 311 313 311 310 313 311 309 310 310 309 312 310 312 313 315 315 308 311 308 309 309 308 307 306
299 300 302 302 302 302 303 302 302 306 309 309 312 309 308 305 301 306 310 309 307 308 309 306 307 306 306 306 312 312 306 310 310 311 314 310 309 307 308 307 308 307 305
300 302 303 302 304 303 303 301 302 308 306 305 305 306 307 305 302 300 308 307 304 304 307 308 309 310 309 310 310 311 309 308 310 309 312 309 309 306 304 309 309 307 303
Wind_Speed
5 1 3 2 3 2 4 4 4 3 3 5 4 4 5 6 6 3 3 12 14 15 14 12 12 12 12 11 11 12 11 9 13 14 15 15 15 15 15 15 16 17 16
4 3 1 2 3 2 4 2 2 3 4 3 5 6 6 5 6 6 5 5 12 17 16 15 15 16 14 13 12 12 10 9 11 13 15 16 15 15 16 16 16 16 16
6 5 3 3 4 2 2 2 2 2 4 4 5 4 5 6 5 6 5 4 7 15 16 17 17 16 15 15 14 13 11 10 10 10 11 13 14 14 16 16 17 17 16
6 4 3 4 2 3 1 2 2 2 3 3 4 4 4 4 5 5 5 4 5 7 10 15 14 15 14 16 14 13 12 10 9 9 10 11 12 13 14 14 15 17 16
6 4 3 4 3 2 1 2 1 2 2 4 4 3 4 4 5 7 7 7 6 6 5 13 14 13 14 14 14 14 12 11 9 10 11 12 12 13 14 14 14 15 17
4 5 4 4 4 3 3 3 2 1 2 4 4 4 4 4 5 5 7 6 5 7 7 7 5 5 13 15 16 14 12 11 11 11 11 11 11 12 13 13 13 13 15
6 6 4 4 4 4 4 3 1 2 2 1 2 4 3 6 7 7 6 6 7 11 7 6 5 4 5 15 13 14 15 12 12 12 10 10 11 12 12 13 13 12 13
7 4 6 6 6 3 4 4 3 1 2 2 2 0 4 4 4 4 4 3 7 8 6 6 6 6 5 3 6 10 13 10 11 11 10 11 10 12 13 12 13 13 13
4 4 5 2 5 4 5 4 3 4 2 3 4 4 2 3 4 3 6 4 4 5 5 3 3 6 6 5 6 7 9 9 12 12 9 11 12 12 12 13 12 12 13
7 4 5 3 5 4 4 3 3 3 4 4 3 4 4 4 4 6 2 3 4 5 3 4 4 5 5 4 7 9 10 10 11 11 10 7 10 13 13 12 12 12 13
7 5 4 5 5 4 4 5 5 4 3 4 4 2 3 4 6 5 8 4 2 3 3 4 4 5 4 2 4 7 11 12 11 11 9 8 11 12 13 13 13 14 14
1 3 6 5 5 4 3 3 7 6 6 5 4 4 5 4 3 4 4 4 4 5 3 4 3 5 4 4 8 11 12 13 11 12 11 10 11 12 12 13 15 15 15
4 5 3 4 5 6 6 6 6 6 6 5 6 6 5 6 4 4 3 6 4 3 3 4 5 4 4 4 5 9 10 10 13 14 13 11 10 10 10 12 13 14 15
4 5 6 4 7 7 6 6 4 5 6 6 7 6 5 6 5 5 4 4 4 3 2 5 2 5 5 4 7 13 6 8 10 12 13 11 10 10 10 10 9 11 12
4 6 6 6 7 7 8 6 4 6 5 5 6 6 5 6 5 5 5 5 6 3 3 3 3 3 3 4 6 3 4 6 10 10 8 9 9 10 11 11 10 10 12
5 7 7 7 7 7 8 7 4 5 5 6 5 6 6 6 6 4 5 5 5 5 3 4 4 3 3 2 5 4 6 7 7 8 9 11 11 11 12 11 11 12 12
6 7 7 8 9 9 8 6 6 7 7 6 6 6 8 7 5 4 4 4 5 4 5 3 3 2 3 4 3 4 5 5 5 10 10 11 12 13 11 11 11 11 12
7 8 8 8 9 9 9 7 8 7 6 7 7 6 9 6 7 6 4 6 5 5 4 7 3 3 5 4 4 4 4 4 4 8 10 10 12 13 12 10 10 10 11
7 8 7 7 8 9 9 7 6 6 6 6 7 7 8 7 6 4 5 5 4 4 4 4 4 2 3 2 3 3 3 4 3 10 11 11 11 13 11 10 10 11 12
7 8 8 7 7 9 8 5 5 6 7 6 7 8 9 8 7 6 5 6 5 5 4 3 3 3 3 3 2 3 4 2 3 3 5 5 7 8 8 9 10 11 10
6 6 9 9 5 5 3 4 5 6 7 8 8 9 7 7 12 7 4 4 4 3 3 3 3 2 2 2 4 3 3 2 0 2 3 3 5 5 5 7 8 8 7
7 6 7 7 7 2 6 8 8 6 6 7 7 8 5 9 7 9 9 7 6 5 3 3 2 4 4 4 3 3 3 3 2 1 3 3 4 5 5 4 10 10 10
6 6 7 5 6 5 6 6 9 5 6 7 5 5 2 3 5 4 3 2 4 7 6 4 4 4 3 6 4 4 3 3 3 2 6 4 6 6 6 6 11 12 11
5 5 6 6 5 5 10 10 9 5 5 6 5 6 4 4 3 1 2 3 3 3 5 4 5 5 5 4 4 4 5 4 5 4 2 3 5 6 6 5 11 11 10
4 4 5 7 6 6 8 11 6 4 6 3 3 5 5 3 3 4 1 5 4 3 5 5 2 4 3 7 6 6 4 7 4 3 3 4 3 8 6 5 5 9 8
5 4 6 6 8 6 9 11 4 3 4 3 5 5 4 4 3 7 3 5 5 3 2 2 2 4 6 6 10 5 3 5 7 5 1 5 6 6 4 2 3 3 3
Wind_Direction
230 212 197 185 243 300 245 251 241 250 274 248 260 286 293 298 284 232 209 234 218 221 231 238 244 251 256 255 249 254 267 270 246 236 231 225 227 224 223 219 215 209 204
218 217 202 281 284 277 303 291 226 238 255 284 302 290 281 286 264 262 255 244 241 228 231 239 254 263 257 257 252 252 259 276 254 241 231 224 224 227 227 227 224 220 209
208 194 206 254 270 295 330 355 347 343 329 330 306 319 321 293 301 279 259 255 274 262 232 236 248 260 259 252 255 254 252 268 255 246 231 224 224 227 227 227 231 228 216
204 184 216 250 282 291 339 356 352 336 325 330 311 313 292 304 302 304 280 279 255 257 265 251 243 254 249 244 247 256 254 254 250 245 237 228 223 226 233 234 229 231 223
199 184 210 250 246 207 149 237 243 176 287 298 286 295 303 300 298 306 290 291 275 257 247 256 252 238 238 244 245 250 259 250 235 251 242 237 233 227 226 233 230 230 225
191 187 194 209 188 172 199 199 215 36 233 277 299 293 276 283 278 276 273 280 273 257 251 238 244 242 226 221 236 247 256 263 241 238 245 237 234 234 235 232 228 230 229
238 195 188 192 196 191 210 222 190 188 300 235 343 318 295 273 277 268 272 272 278 274 234 230 227 218 227 216 225 239 249 254 262 230 236 236 237 237 237 236 230 220 226
223 193 204 202 205 200 220 236 192 168 242 259 206 338 302 325 291 291 297 288 291 284 241 226 216 185 176 191 214 226 236 235 251 261 218 231 237 241 242 237 233 225 217
292 311 301 249 246 203 226 222 196 166 214 280 221 199 325 257 320 267 287 285 314 317 284 257 226 180 183 199 213 203 214 226 241 243 256 213 234 242 244 243 236 231 222
34 8 6 5 290 271 265 243 213 233 144 233 265 221 226 207 241 311 282 288 284 290 326 297 241 244 204 216 226 217 214 220 222 229 245 247 236 249 249 248 241 234 228
11 22 358 327 296 272 269 293 276 242 219 220 203 244 238 237 236 226 292 307 297 253 245 242 256 253 244 224 227 242 237 228 221 225 225 234 242 247 248 245 245 237 233
358 329 319 318 309 313 323 259 256 256 246 236 233 224 226 216 213 216 249 268 255 289 268 257 254 242 231 202 243 227 231 232 224 222 228 220 222 232 238 242 244 243 238
351 340 336 319 310 292 284 277 271 260 242 226 220 231 224 233 212 213 215 263 243 277 273 239 234 241 242 211 218 245 234 227 225 216 220 218 221 213 226 236 238 243 244
319 305 305 285 262 256 248 245 245 246 234 237 243 230 234 232 216 210 202 195 272 252 273 238 261 233 239 225 220 233 235 240 227 209 207 207 218 223 217 227 239 239 232
265 269 303 300 292 288 282 263 255 269 254 247 246 249 231 246 227 215 210 206 221 227 256 273 244 264 263 255 240 222 219 236 231 207 197 214 217 222 223 222 232 246 228
287 309 300 292 283 284 283 279 277 265 266 269 255 248 243 243 236 218 218 202 195 199 224 208 242 253 285 263 235 218 237 243 249 216 214 221 219 219 220 224 231 234 240
303 287 283 285 287 287 285 278 288 272 257 256 262 241 254 247 240 228 215 200 203 174 216 279 247 248 281 287 243 229 228 226 224 223 223 230 219 221 215 214 228 230 233
286 276 279 278 283 286 280 269 280 283 258 262 257 256 255 253 240 229 214 211 195 192 186 237 242 232 224 249 248 243 236 236 223 233 235 229 225 223 213 211 219 224 220
289 286 282 279 286 287 290 279 284 301 269 258 259 253 255 239 245 229 213 208 208 188 193 199 254 227 236 222 255 252 227 237 248 249 241 237 227 216 205 206 216 212 195
295 298 295 280 290 297 293 296 312 308 297 288 275 267 259 235 230 226 213 210 202 202 190 205 233 253 234 247 195 226 269 227 252 237 231 184 169 180 164 175 175 166 151
301 310 312 302 307 310 329 347 318 308 301 296 286 280 258 229 235 205 163 185 180 174 166 192 221 217 238 240 211 200 213 224 215 180 116 116 121 112 111 99 123 131 124
318 324 316 311 319 62 325 322 327 295 296 290 303 318 42 100 104 107 113 143 167 170 194 185 216 232 240 223 221 198 166 166 164 125 109 93 105 91 83 77 110 115 117
318 315 311 320 309 292 273 291 313 299 289 289 287 289 60 94 103 84 27 339 285 241 191 175 227 221 247 218 195 173 163 132 161 144 114 102 102 86 85 93 93 94 94
301 301 302 313 302 302 294 302 321 309 300 286 268 174 149 115 104 60 346 1 39 38 179 205 229 254 249 256 192 163 148 105 98 108 126 95 113 94 82 64 85 90 94
287 276 289 307 312 300 311 314 332 334 329 338 86 121 130 117 354 353 76 120 87 53 65 112 126 153 143 96 116 114 110 131 127 109 51 97 84 90 69 58 39 61 77
266 278 296 306 304 308 310 311 356 16 356 60 61 54 84 126 25 11 133 115 86 36 50 66 68 56 42 47 68 82 137 119 130 106 73 98 120 123 92 85 87 55 61